Location: Capelle
(50.3413°N, 1.9974°E)
Time: 20:44:49
(UTC+00:00)

Daily predictions for brighter satellites

Satellite Brightness Start Highest point End
(mag) Time Altitude Azimuth Time Altitude Azimuth Time Altitude Azimuth
BREEZE-M DEB (TANK) 4.4 16:28:32 10° SSW 16:33:14 49° SE 16:48:40 10° ENE
Nadezhda 1 Rocket 4.2 16:42:24 10° SSE 16:48:12 50° E 16:54:02 10° NNE
Cosmos 1954 Rocket 4.2 16:43:36 10° NNW 16:48:40 49° ENE 16:53:43 10° SE
CBERS-1 4.0 16:44:52 10° SSE 16:49:58 88° ENE 16:55:05 10° NNW
Cosmos 1666 Rocket 4.2 16:47:00 10° N 16:51:04 34° ENE 16:55:06 10° SE
USA 238 DEB 4.2 16:48:29 10° NW 16:55:21 47° NNE 17:02:52 10° ESE
USA 238 4.2 16:48:35 10° NW 16:55:27 47° NNE 17:02:58 10° ESE
Meteor 1-28 Rocket 2.9 16:53:22 10° NNE 16:56:39 62° ESE 16:59:54 10° S
SL-8 Rocket 4.4 16:52:50 10° N 16:58:38 39° ENE 17:04:21 10° SE
IGS 5A 4.0 16:59:05 10° S 17:03:01 61° W 17:06:58 10° NNW
SAR-Lupe-4 4.3 17:00:36 10° SE 17:03:46 30° ENE 17:06:56 10° N
Cosmos 1328 Rocket 4.3 17:01:04 10° SSE 17:04:55 32° E 17:08:49 10° NNE
SPOT 1/Viking Rocket 4.0 17:00:40 10° SE 17:05:22 37° ENE 17:10:05 10° N
Cosmos 1805 Rocket 4.3 17:01:48 10° NNW 17:06:07 58° W 17:10:21 10° S
Thor Agena Rocket 3.5 17:01:19 10° SSE 17:06:21 84° ENE 17:11:24 10° NNW
Cosmos 1190 Rocket 3.9 17:01:11 10° NNW 17:06:23 78° ENE 17:11:34 10° SSE
USA 267 3.5 17:00:15 10° E 17:06:37 57° NNE 17:13:00 10° WNW
Cosmos 968 Rocket 4.2 17:02:14 10° N 17:06:51 31° NE 17:11:24 10° ESE
Cosmos 2219 Rocket 4.4 17:04:04 10° WNW 17:06:54 14° NNW 17:09:45 10° N
MOS 1 Rocket 3.5 17:01:41 10° SSE 17:06:56 65° ENE 17:12:00 10° N
SL-4 R/B 2.5 17:03:18 10° WNW 17:07:13 58° SSW 17:11:03 10° SE
COSMO-SKYMED 1 4.2 17:09:15 11° ENE 17:11:00 14° E 17:13:12 10° ESE
Cosmos 1697 Rocket 4.5 17:09:44 10° N 17:12:23 13° NNE 17:14:45 11° NE
BREEZE-M DEB (TANK) 3.2 17:06:26 10° WSW 17:12:53 74° SSE 17:16:45 12° ENE
USA 59 Rocket 1.6 17:12:37 10° N 17:13:14 10° NNE 17:13:52 10° NNE
Cosmos 2360 Rocket 4.5 17:12:14 10° NNW 17:13:25 11° NNW 17:14:35 10° N
Cosmos 304 Rocket 3.8 17:11:05 10° NNW 17:15:53 88° WSW 17:20:38 10° SSE
Cosmos 1953 3.0 17:14:06 10° N 17:17:19 27° ENE 17:20:31 10° SE
IRS-P3 4.2 17:12:37 10° SE 17:17:46 55° ENE 17:22:58 10° N
Resurs 01 Rocket 3.2 17:15:51 11° E 17:18:12 15° ENE 17:20:42 10° NNE
Cosmos 676 Rocket 3.9 17:14:50 10° NNW 17:20:00 65° ENE 17:25:10 10° SE
Cosmos 332 Rocket 4.4 17:17:16 10° N 17:21:37 34° NE 17:25:58 10° ESE
SL-16 R/B 2.9 17:17:10 10° NNE 17:23:18 67° WNW 17:29:23 10° SSW
BREEZE M DEB (TANK) 3.4 17:22:36 10° W 17:24:31 31° SSW 17:27:17 10° SE
Cosmos 2369 Rocket 2.7 17:22:46 10° NNW 17:28:27 66° WSW 17:34:04 10° SSE
YAOGAN 1 3.1 17:27:42 10° SE 17:31:35 35° ENE 17:35:29 10° N
Cosmos 2297 4.2 17:28:50 10° NW 17:34:25 64° WSW 17:40:00 10° SSE
NOSS 2-3 (C) 4.2 17:30:36 10° NW 17:35:30 79° NE 17:42:20 10° SE
Cosmos 1943 3.4 17:31:34 10° S 17:36:57 50° ESE 17:41:43 14° NE
NOSS 2-3 (D) 4.2 17:32:08 10° NW 17:37:06 89° NE 17:43:50 10° SE
Landsat 7 4.4 17:33:42 10° S 17:38:18 61° W 17:42:56 10° NNW
NOSS 3-4 (A) 4.2 17:34:51 10° SSE 17:39:06 25° ESE 17:41:27 19° ENE
NOSS 3-4 (C) 4.2 17:35:00 10° SSE 17:39:15 25° ESE 17:41:36 19° ENE
SJ 16-02 2.0 17:36:54 10° NNW 17:41:07 58° WSW 17:45:18 10° S
SMAP 4.2 17:39:48 10° S 17:44:17 46° W 17:48:47 10° NNW
Cosmos 1470 Rocket 3.5 17:40:24 10° N 17:44:41 61° ENE 17:48:57 10° SSE
UNK 4.1 17:42:24 10° N 17:46:53 64° WNW 17:51:21 10° SSW
Radarsat Rocket 4.1 17:41:13 10° SE 17:47:18 53° ENE 17:53:00 10° N
COSMOS 2455 4.3 17:44:42 10° NNW 17:49:05 20° NNE 17:51:04 17° NE
Cosmos 2218 Rocket 4.0 17:45:02 10° N 17:51:28 74° ENE 17:57:51 10° SSE
Cosmos 2366 rocket 4.0 17:45:08 10° N 17:51:31 79° E 17:57:52 10° SSE
Meteor 1-23 Rocket 4.4 17:46:31 10° S 17:52:00 51° E 17:57:27 10° NNE
Cosmos 1933 Rocket 4.0 17:48:37 10° N 17:52:43 36° ENE 17:56:45 10° SE
Spot 4 Rocket 4.0 17:48:10 10° SE 17:53:10 56° ENE 17:58:12 10° N
Cosmos 2237 Rocket 4.0 17:48:52 10° W 17:53:22 24° NW 17:57:53 10° NNE
ATLAS 3B R/B 3.9 17:46:29 10° W 17:53:46 41° NNW 18:00:05 14° NE
SL-16 R/B 2.8 17:49:33 10° SW 17:55:07 55° NW 18:00:42 10° NNE
PSLV R/B 3.7 17:52:00 10° SE 17:55:57 45° ENE 17:59:57 10° N
Cosmos 1703 3.1 17:53:44 10° SSE 17:56:55 45° E 17:57:38 38° ENE
Meteor 1-12 Rocket 4.3 17:52:29 10° N 17:58:03 55° ENE 18:03:35 10° SSE
Meteor 1-21 4.3 17:55:14 10° S 18:00:40 54° E 18:06:07 10° NNE
Cosmos 2341 Rocket 4.1 17:56:03 10° N 18:02:26 83° W 18:08:43 10° S
BREEZE-M DEB (TANK) 3.9 18:04:09 10° SSW 18:06:30 27° SE 18:06:55 26° ESE
SL-24 R/B - RUBIN 2 3.8 18:06:06 10° NNW 18:10:21 47° NE 18:11:19 39° E
BREEZE-M DEB (TANK) 2.2 18:09:23 10° W 18:11:49 54° SSW 18:11:59 52° S
Meteor 1-16 Rocket 3.9 18:07:00 10° N 18:12:20 76° ENE 18:17:41 10° SSE
Cosmos 2056 Rocket 3.7 18:07:22 10° SSW 18:12:29 71° WNW 18:16:52 14° NNE
ATLAS 5 CENTAUR R/B 0.4 18:09:49 10° SW 18:12:47 82° SE 18:13:01 73° ENE
NOSS 3-1 (C) 4.5 18:07:25 10° NW 18:13:07 34° NNE 18:15:43 27° ENE
USA 215 3.6 18:10:46 28° ENE 18:14:04 50° SE 18:20:23 10° SSW
ARIANE 5 R/B 4.0 18:10:15 10° SSW 18:15:07 39° W 18:20:01 10° NNW
Cosmos 1869 Rocket 3.7 18:15:01 10° N 18:19:17 46° ENE 18:19:22 46° ENE
Meteor 2-15 Rocket 4.4 18:15:46 10° N 18:21:52 61° ENE 18:27:56 10° SSE
Cosmos 1633 Rocket 4.5 18:18:05 10° NNW 18:22:06 38° W 18:26:05 10° SSW
Nadezhda 3 Rocket 4.2 18:16:42 10° SSE 18:22:27 44° E 18:27:16 15° NNE
SJ-7 4.2 18:20:23 10° SSE 18:24:10 83° WSW 18:27:59 10° NNW
ISS -1.6 18:24:00 10° SSW 18:25:24 17° S 18:25:24 17° S
Resurs 1-3 3.9 18:24:00 10° S 18:28:16 66° WSW 18:32:34 10° NNW
Meteor 2-13 Rocket 4.3 18:23:33 10° S 18:29:40 74° E 18:35:50 10° NNE
Cosmos 292 Rocket 3.6 18:26:16 10° NNW 18:30:59 67° ENE 18:32:17 45° SE
Cosmos 1980 Rocket 3.9 18:27:40 10° N 18:30:22 17° NNE 18:30:22 17° NNE
BREEZE-M DEB (TANK) 3.4 18:31:12 10° SW 18:34:26 55° SSE 18:36:26 39° E
Cosmos 1656 3.6 18:29:40 10° NNW 18:35:17 62° ENE 18:36:54 43° ESE
CARTOSAT-1 3.3 18:31:33 10° SSE 18:35:46 87° ENE 18:40:00 10° NNW
SKYMED 2 4.1 18:33:23 13° N 18:37:11 57° WNW 18:41:26 10° SSW
DMSP B5D1-3 4.4 18:40:06 57° E 18:40:26 58° E 18:45:25 10° S
Cosmos 1340 Rocket 4.3 18:38:07 10° N 18:39:45 24° N 18:39:45 24° N
CZ-2D R/B 4.5 18:39:55 10° S 18:43:36 42° W 18:47:16 10° NNW
USA 238 DEB 4.2 18:39:27 10° NW 18:46:46 68° SW 18:54:44 10° SSE
COSMO-SKYMED 1 2.6 18:45:34 43° N 18:46:46 69° WNW 18:50:50 10° SSW
USA 238 4.2 18:39:33 10° NW 18:46:52 69° SW 18:54:51 10° SSE
Cosmos 1741 Rocket 4.3 18:43:10 10° NNW 18:48:23 67° WSW 18:53:31 10° S
Cosmos 968 Rocket 4.4 18:43:48 10° NW 18:48:44 46° WSW 18:53:36 10° S
USA 267 3.2 18:46:12 33° SE 18:49:30 81° SSW 18:56:05 10° WNW
BREEZE-M DEB (TANK) 2.9 18:46:43 10° W 18:50:58 81° SSW 18:50:58 81° SSW
Cosmos 1953 4.4 18:49:12 10° NNW 18:52:18 26° W 18:55:24 10° SSW
Resurs 01 Rocket 1.6 18:53:13 60° S 18:53:59 81° WSW 18:58:23 10° NNW
Cosmos 1603 3.6 18:48:54 10° SSW 18:54:34 90° WNW 18:56:03 52° NNE
SL-16 R/B 4.4 18:54:08 10° N 18:54:55 11° N 18:54:55 11° N
Cosmos 1331 Rocket 3.9 18:51:04 10° SSW 18:56:12 80° WNW 18:57:24 53° N
Cosmos 1697 Rocket 3.6 18:52:43 10° NNW 18:56:29 33° NNE 18:56:29 33° NNE
USA 59 Rocket 2.2 18:59:37 10° NNW 18:59:49 11° NNW 18:59:49 11° NNW
Okean 2 4.5 18:59:35 10° SSW 19:02:03 36° SW 19:02:03 36° SW
Cosmos 1110 Rocket 4.4 19:05:18 10° SW 19:10:27 59° WNW 19:11:42 46° N
Cosmos 1452 Rocket 3.6 19:13:01 10° SSW 19:18:15 70° WNW 19:18:18 70° WNW
Cosmos 1943 4.5 19:16:01 10° WSW 19:21:11 36° NW 19:23:31 26° N
Cosmos 2360 4.2 19:18:00 10° NNW 19:23:39 77° WSW 19:23:39 77° WSW
Cosmos 1339 Rocket 4.3 19:19:04 10° S 19:25:09 86° SSW 19:25:09 86° SSW
NOSS 3-4 (A) 3.4 19:23:59 10° SW 19:28:55 67° WNW 19:28:55 67° WNW
NOSS 3-4 (C) 3.4 19:24:06 10° SW 19:29:04 67° WNW 19:29:04 67° WNW
COSMOS 2455 3.9 19:30:34 10° NNW 19:34:12 34° N 19:34:12 34° N
SL-16 R/B 4.4 19:37:01 10° WNW 19:40:32 16° NNW 19:42:38 14° N
ATLAS 3B R/B 4.1 19:39:50 10° WNW 19:46:38 30° N 19:47:20 30° N
USA 215 3.5 19:58:06 66° WNW 19:58:06 66° WNW 20:03:51 10° WSW
NOSS 3-1 (C) 4.2 19:57:59 10° NW 20:03:04 56° NNW 20:03:04 56° NNW
Cosmos 1980 Rocket 4.4 20:10:58 10° NNW 20:12:07 16° NNW 20:12:07 16° NNW
